Tracking 25710 objects as of 6-Jul-2022
HD Live streaming from Space Station
objects crossing your sky now

FENGYUN 1C DEB

Track FENGYUN 1C DEB now!
10-day predictions


NORAD ID: 29886
Int'l Code: 1999-025GG
Perigee: 740.8 km
Apogee: 785.6 km
Inclination: 99.2 °
Period: 99.9 minutes
Semi major axis: 7134 km
RCS: 0.0337 m2 (small)
Launch date: May 10, 1999
Source: People's Republic of China (PRC)
Launch site: Taiyaun Space Center, China (TSC)

Note: This is SATELLITE DEBRIS
aabbcc
Your satellite tracking list
Your tracking list is empty




NASA's NSSDC Master Catalog

Two Line Element Set (TLE):
1 29886U 99025GG  22186.78504884  .00003692  00000-0  11633-2 0  9997
2 29886  99.2335 188.2879 0031370 250.7446 284.6583 14.40740427805137
Source of the keplerian elements: AFSPC